Location: Zagreb
(45.8000°N, 16.0000°E)
Time: 15:20:29
(UTC+02:00)

Transit 2A - Pass Details

Date: 15 August 2022
Orbit: 601 x 956 km, 66.7° (Epoch: 25 September)

Event Time Altitude Azimuth Distance (km) Brightness Sun altitude
Rises 18:46:05 0° 335° (NNW) 2,861 9.4 12.4°
Reaches altitude 10° 18:48:51 10° 353° (N) 1,956 8.4 11.9°
Maximum altitude 18:52:05 20° 41° (NE) 1,426 7.2 11.4°
Drops below altitude 10° 18:55:24 10° 90° (E) 2,000 7.6 10.8°
Sets 18:58:15 0° 107° (ESE) 2,948 8.4 10.3°
